Home > Weather > Ahmedabad > Past weeks

Flag for India Past Weather in Ahmedabad, Gujarat, India — Yesterday and Last 2 Weeks

Now
81 °F

Partly cloudy.


Feels Like: 87 °F
Forecast: 79 / 87 °F
Wind: 3 mph from South

Location: Ahmadabad Airport

Current Time: Jul 27, 2016 at 11:06:01 PM

Latest Report: Jul 27, 2016 at 10:30 PM


Visibility: 2 mi

Pressure: 29.68 "Hg

Humidity: 89%

Dew Point: 77 °F

Location of AhmedabadLocation

Past Weather in Ahmedabad — Graph

°F

Ahmedabad Temperature Yesterday

Maximum temperature yesterday: 93 °F (at 3:00 PM)
Minimum temperature yesterday: 82 °F (at 2:30 AM)
Average temperature yesterday: 87 °F

High & Low Weather Summary for the Past Weeks

 TemperatureHumidityPressure
High95 °F (Jul 22, 3:00 PM)100% (Jul 13, 1:00 AM)29.74 "Hg (Jul 13, 1:00 AM)
Low79 °F (Jul 12, 10:30 PM)47% (Jul 22, 5:30 PM)29.50 "Hg (Jul 14, 5:30 PM)
Average85 °F76%29.62 "Hg
* Reported Jul 12 10:30 PM — Jul 27 9:33 PM, Ahmedabad, Weather by CustomWeather, © 2016

Note: Actual official high and low records may vary slightly from our data, if they occured in-between our weather recording intervals... More about our weather records

Advertising

Ahmedabad Weather History for the Previous 24 Hours

Scroll right to see more
 ConditionsComfort  
Time TempWeatherWind HumidityBarometerVisibility
9:33 PM
Wed, Jul 27
81 °FPartly cloudy.3 mph89%29.68 "Hg2 mi
9:30 PM81 °FPartly cloudy.No wind94%29.68 "Hg2 mi
9:00 PM81 °FFog.No wind94%29.68 "Hg2 mi
8:30 PM81 °FFog.No wind89%29.65 "Hg2 mi
8:00 PM81 °FFog.No wind89%29.65 "Hg2 mi
7:30 PM81 °FFog.2 mph89%29.65 "Hg2 mi
7:00 PM81 °FLight rain. More clouds than sun.No wind89%29.65 "Hg2 mi
6:30 PM81 °FLight rain. More clouds than sun.2 mph89%29.65 "Hg2 mi
5:30 PM81 °FLight rain. More clouds than sun.9 mph84%29.65 "Hg3 mi
5:00 PM84 °FLight rain. More clouds than sun.3 mph79%29.62 "Hg3 mi
4:30 PM86 °FMore clouds than sun.5 mph75%29.62 "Hg4 mi
4:00 PM86 °FMore clouds than sun.3 mph75%29.65 "Hg4 mi
3:30 PM86 °FMore clouds than sun.3 mph75%29.65 "Hg5 mi
3:00 PM86 °FMore clouds than sun.5 mph75%29.65 "Hg5 mi
2:30 PM84 °FMore clouds than sun.3 mph79%29.65 "Hg5 mi
2:00 PM84 °FScattered clouds.5 mph74%29.68 "Hg4 mi
1:30 PM84 °FBroken clouds.6 mph79%29.68 "Hg4 mi
1:00 PM84 °FBroken clouds.8 mph79%29.68 "Hg3 mi
12:30 PM82 °FDrizzle. Broken clouds.6 mph79%29.68 "Hg2 mi
12:00 PM82 °FDrizzle. Broken clouds.5 mph84%29.71 "Hg2 mi
11:30 AM81 °FDrizzle. More clouds than sun.5 mph94%29.71 "Hg2 mi
10:30 AM81 °FLight rain. More clouds than sun.3 mph94%29.71 "Hg1 mi
10:00 AM81 °FLight rain. More clouds than sun.5 mph94%29.71 "Hg1 mi
9:30 AM81 °FDrizzle. More clouds than sun.3 mph94%29.71 "Hg1 mi
9:00 AM81 °FDrizzle. More clouds than sun.5 mph94%29.68 "Hg1 mi
8:30 AM81 °FDrizzle. More clouds than sun.7 mph94%29.68 "Hg1 mi
8:00 AM81 °FDrizzle. Broken clouds.5 mph94%29.65 "Hg1 mi
7:30 AM81 °FDrizzle. Broken clouds.6 mph89%29.65 "Hg1 mi
6:30 AM81 °FPassing clouds.5 mph89%29.65 "Hg2 mi
6:00 AM82 °FPassing clouds.6 mph84%29.65 "Hg2 mi
5:00 AM82 °FPartly cloudy.6 mph84%29.62 "Hg2 mi
4:30 AM84 °FPartly cloudy.6 mph79%29.62 "Hg2 mi
4:00 AM84 °FPassing clouds.7 mph74%29.62 "Hg2 mi
3:00 AM82 °FPassing clouds.7 mph79%29.62 "Hg2 mi
2:30 AM84 °FPassing clouds.6 mph74%29.62 "Hg2 mi
2:00 AM84 °FPassing clouds.8 mph79%29.62 "Hg2 mi
1:30 AM84 °FPassing clouds.8 mph79%29.65 "Hg2 mi
1:00 AM84 °FPassing clouds.7 mph79%29.65 "Hg2 mi
12:30 AM86 °FPassing clouds.7 mph79%29.65 "Hg2 mi
12:00 AM86 °FPassing clouds.6 mph79%29.65 "Hg2 mi
11:30 PM
Tue, Jul 26
86 °FPassing clouds.8 mph79%29.65 "Hg2 mi
11:00 PM86 °FPassing clouds.5 mph79%29.65 "Hg2 mi
Weather by CustomWeather, © 2016

See weather overviewHow to use our weather pages